FW1075 Weather Reports


time (UTC)temp
F
wind
direction
speed
knots
gust
knots
rain 1hr
in
rain 24hr
in
rain mn
in
humidity
%
barometer
mb
20260507060122 55 292 2.6 6.1 0.00 0.09 0.00 97 1006.8
20260507055143 56 282 2.6 6.1 0.00 0.09 0.00 97 1006.8
20260507054123 56 310 1.7 3.5 0.00 0.09 0.00 99 1006.4
20260507053123 56 8 1.7 3.5 0.00 0.09 0.00 99 1006.2
20260507052121 56 303 1.7 5.2 0.00 0.09 0.00 99 1006.4
20260507051121 56 285 1.7 3.5 0.00 0.09 0.00 99 1006.5
20260507050142 56 281 1.7 4.3 0.00 0.09 0.00 99 1006.4
20260507045121 56 284 1.7 3.5 0.00 0.09 0.00 99 1006.4
20260507044142 56 285 1.7 3.5 0.00 0.09 0.00 99 1006.7
20260507043125 56 295 1.7 2.6 0.00 0.09 0.00 99 1007.0
20260507042123 56 294 1.7 3.5 0.00 0.09 0.00 99 1006.8
20260507041124 57 281 1.7 2.6 0.00 0.09 0.00 99 1006.9
20260507040121 57 295 1.7 5.2 0.00 0.09 0.00 99 1006.7
20260507035121 57 320 1.7 2.6 0.01 0.09 0.09 99 1006.7
20260507034145 57 288 2.6 4.3 0.01 0.09 0.09 99 1006.7
20260507033121 57 299 1.7 4.3 0.01 0.09 0.09 99 1006.6
20260507032142 57 280 3.5 6.1 0.01 0.09 0.09 99 1006.4
20260507031121 57 320 3.5 5.2 0.02 0.09 0.09 99 1006.5
20260507030143 58 334 3.5 5.2 0.03 0.09 0.09 99 1006.5
20260507025123 58 0 0.9 2.6 0.02 0.08 0.08 99 1006.6
20260507024121 58 203 0.0 0.0 0.02 0.08 0.08 99 1006.6
20260507023122 58 338 0.0 0.0 0.04 0.08 0.08 99 1006.8
20260507022123 58 265 1.7 3.5 0.04 0.08 0.08 99 1006.6
20260507021123 58 95 0.9 3.5 0.03 0.07 0.07 99 1006.0
20260507020122 58 96 0.0 1.7 0.02 0.06 0.06 99 1006.0
20260507015143 58 158 0.0 0.0 0.02 0.06 0.06 99 1006.4
20260507014122 58 207 0.9 1.7 0.02 0.06 0.06 99 1006.6
20260507013143 58 220 0.9 1.7 0.00 0.04 0.04 99 1006.2
20260507012142 58 213 0.0 1.7 0.00 0.04 0.04 99 1006.1
20260507011143 58 196 0.0 1.7 0.00 0.04 0.04 99 1006.2
20260507010121 58 212 0.9 1.7 0.00 0.04 0.04 99 1006.2
20260507005121 58 225 0.9 2.6 0.00 0.04 0.04 99 1006.2
20260507004142 59 263 0.9 1.7 0.00 0.04 0.04 99 1006.0
20260507003144 59 177 0.9 2.6 0.00 0.04 0.04 99 1006.2
20260507002121 59 195 0.9 1.7 0.00 0.04 0.04 99 1006.2
20260507001123 59 166 0.0 1.7 0.00 0.04 0.04 99 1006.2
20260507000121 59 241 0.9 2.6 0.00 0.04 0.04 99 1006.0
20260506235123 59 251 0.9 1.7 0.00 0.04 0.04 99 1006.0
20260506234145 59 182 0.9 2.6 0.00 0.04 0.04 99 1005.8
20260506233121 59 223 0.9 2.6 0.00 0.04 0.04 99 1006.0
20260506232142 59 200 0.9 2.6 0.00 0.04 0.04 99 1005.9
20260506231124 59 263 0.9 2.6 0.00 0.04 0.04 99 1005.8
20260506230121 59 250 1.7 3.5 0.00 0.04 0.04 99 1005.7
20260506225121 59 275 1.7 2.6 0.00 0.04 0.04 99 1005.7
20260506224144 59 255 1.7 2.6 0.00 0.04 0.04 99 1005.7
20260506223122 58 277 1.7 3.5 0.00 0.04 0.04 99 1005.6
20260506222122 59 234 2.6 3.5 0.00 0.04 0.04 99 1005.7
20260506221122 59 235 1.7 3.5 0.00 0.04 0.04 99 1005.7
20260506220122 59 242 2.6 4.3 0.00 0.04 0.04 99 1005.6
20260506215124 60 247 1.7 4.3 0.00 0.04 0.04 99 1005.6
20260506214123 60 237 1.7 3.5 0.00 0.04 0.04 99 1005.2
20260506213122 60 241 1.7 3.5 0.00 0.04 0.04 99 1005.2
20260506212124 60 236 2.6 4.3 0.00 0.04 0.04 99 1005.1
20260506211122 60 237 0.9 4.3 0.00 0.04 0.04 99 1005.0
20260506210121 60 258 0.9 2.6 0.00 0.04 0.04 99 1005.0
20260506205121 60 222 1.7 2.6 0.00 0.04 0.04 99 1005.0
20260506204121 59 253 1.7 4.3 0.00 0.04 0.04 99 1005.2
20260506203121 58 255 0.9 2.6 0.01 0.04 0.04 99 1005.2
20260506202145 58 203 1.7 3.5 0.02 0.04 0.04 99 1005.4
20260506201124 58 223 1.7 2.6 0.02 0.04 0.04 99 1005.7
20260506200121 58 224 1.7 3.5 0.02 0.04 0.04 99 1005.7
20260506195121 58 262 1.7 5.2 0.02 0.04 0.04 99 1005.7
20260506194123 58 259 2.6 4.3 0.02 0.04 0.04 99 1005.8
20260506193121 58 249 2.6 5.2 0.01 0.03 0.03 99 1006.1
20260506192121 58 247 4.3 10.4 0.00 0.02 0.02 99 1006.0
20260506191121 59 256 4.3 9.6 0.00 0.02 0.02 99 1005.9
20260506190146 59 253 4.3 8.7 0.00 0.02 0.02 99 1005.9
20260506185145 60 212 3.5 7.0 0.00 0.02 0.02 99 1005.7
20260506184124 59 168 2.6 3.5 0.00 0.02 0.02 99 1005.9
20260506183123 59 225 2.6 5.2 0.00 0.02 0.02 99 1006.2
20260506182127 59 220 2.6 4.3 0.01 0.02 0.02 99 1006.5
20260506181122 59 249 3.5 5.2 0.01 0.02 0.02 99 1006.4
20260506180146 59 215 2.6 4.3 0.01 0.02 0.02 99 1006.4
20260506175122 59 266 2.6 4.3 0.02 0.02 0.02 99 1006.4
20260506174123 59 252 2.6 5.2 0.02 0.02 0.02 99 1006.7
20260506173122 59 221 2.6 4.3 0.02 0.02 0.02 99 1006.7
20260506172122 59 235 3.5 7.0 0.01 0.01 0.01 99 1007.2
20260506171122 60 246 1.7 4.3 0.01 0.01 0.01 99 1007.4
20260506170121 59 231 2.6 7.8 0.01 0.01 0.01 99 1007.5
20260506165121 60 238 3.5 6.1 0.00 0.00 0.00 99 1007.5
20260506164143 60 205 2.6 6.1 0.00 0.00 0.00 97 1007.9
20260506163121 62 252 2.6 7.8 0.00 0.00 0.00 91 1008.0
20260506162121 62 241 3.5 7.0 0.00 0.00 0.00 89 1008.0
20260506161121 63 258 4.3 7.0 0.00 0.00 0.00 89 1008.1
20260506160121 64 241 3.5 6.1 0.00 0.00 0.00 87 1007.8
20260506155121 63 251 4.3 7.0 0.00 0.00 0.00 90 1007.8
20260506154121 62 235 4.3 8.7 0.00 0.00 0.00 90 1008.0
20260506153123 63 235 4.3 8.7 0.00 0.00 0.00 88 1008.2
20260506152122 65 267 3.5 7.8 0.00 0.00 0.00 87 1008.2
20260506151142 65 268 4.3 7.8 0.00 0.00 0.00 86 1008.4
20260506150121 66 220 4.3 7.8 0.00 0.00 0.00 84 1008.1
20260506145122 66 225 2.6 5.2 0.00 0.00 0.00 85 1008.1
20260506144122 64 193 2.6 6.1 0.00 0.00 0.00 88 1008.1
20260506143122 64 184 2.6 4.3 0.00 0.00 0.00 89 1007.9
20260506142122 63 269 3.5 5.2 0.00 0.00 0.00 88 1008.1
20260506141123 64 227 3.5 7.0 0.00 0.00 0.00 88 1008.2
20260506140122 64 222 3.5 5.2 0.00 0.00 0.00 87 1008.2
20260506135123 65 231 2.6 5.2 0.00 0.00 0.00 86 1008.2
20260506134144 65 235 4.3 6.1 0.00 0.00 0.00 86 1008.4
20260506133143 65 215 4.3 7.0 0.00 0.00 0.00 86 1008.4
20260506132122 65 210 3.5 7.0 0.00 0.00 0.00 86 1008.2
20260506131121 65 241 2.6 5.2 0.00 0.00 0.00 86 1008.2
20260506130121 64 225 2.6 5.2 0.00 0.00 0.00 87 1008.2
20260506125121 63 239 2.6 5.2 0.00 0.00 0.00 89 1008.2
20260506124145 62 232 3.5 7.0 0.00 0.00 0.00 91 1008.2
20260506123123 62 236 2.6 5.2 0.00 0.00 0.00 91 1008.2
20260506122122 62 221 3.5 7.0 0.00 0.00 0.00 90 1008.6
20260506121121 63 259 3.5 6.1 0.00 0.00 0.00 90 1008.6
20260506120121 61 241 3.5 5.2 0.00 0.00 0.00 93 1008.7
20260506115121 61 230 2.6 4.3 0.00 0.00 0.00 95 1008.7
20260506114121 61 259 2.6 4.3 0.00 0.00 0.00 95 1008.7
20260506113122 60 274 3.5 5.2 0.00 0.00 0.00 95 1008.6
20260506112123 60 261 2.6 4.3 0.00 0.00 0.00 96 1008.5
20260506111123 59 210 2.6 8.7 0.00 0.00 0.00 98 1008.6
20260506110122 58 206 2.6 6.1 0.00 0.00 0.00 99 1008.6
20260506105123 58 209 2.6 6.1 0.00 0.00 0.00 99 1008.6
20260506104122 56 229 2.6 5.2 0.00 0.00 0.00 99 1008.5
20260506103122 56 227 2.6 4.3 0.00 0.00 0.00 99 1008.5
20260506102122 55 207 2.6 3.5 0.00 0.00 0.00 99 1008.5
20260506101122 55 276 1.7 4.3 0.00 0.00 0.00 99 1008.4
20260506100124 55 239 2.6 5.2 0.00 0.00 0.00 99 1008.4
20260506095123 55 217 2.6 4.3 0.00 0.00 0.00 99 1008.4
20260506094123 55 219 1.7 4.3 0.00 0.00 0.00 99 1008.4
20260506093122 55 226 2.6 5.2 0.00 0.00 0.00 99 1008.4
20260506092121 55 198 1.7 3.5 0.00 0.00 0.00 99 1008.4
20260506091121 55 244 1.7 3.5 0.00 0.00 0.00 99 1008.6
20260506090121 55 216 1.7 3.5 0.00 0.00 0.00 99 1008.6
20260506085122 55 166 1.7 4.3 0.00 0.00 0.00 99 1008.7
20260506084121 55 177 1.7 4.3 0.00 0.00 0.00 99 1008.7
20260506083122 55 210 1.7 3.5 0.00 0.00 0.00 99 1008.7
20260506082121 55 195 1.7 3.5 0.00 0.00 0.00 99 1008.7
20260506081121 55 161 1.7 3.5 0.00 0.00 0.00 99 1008.8
20260506080152 55 191 1.7 3.5 0.00 0.00 0.00 99 1008.9
20260506080142 55 193 1.7 3.5 0.00 0.00 0.00 99 1008.9
20260506073143 55 210 1.7 4.3 0.00 0.00 0.00 99 1008.9
20260506072142 55 159 0.9 2.6 0.00 0.00 0.00 99 1009.1
20260506071123 56 182 0.9 2.6 0.00 0.00 0.00 99 1009.1
20260506070121 56 181 1.7 3.5 0.00 0.00 0.00 99 1009.1
20260506062144 57 298 2.6 4.3 0.00 0.00 0.00 99 1009.0
20260506061122 57 227 2.6 4.3 0.00 0.00 0.00 99 1009.0